Tracking 18942 objects as of 18-Jan-2018
HD Live streaming from Space Station
objects crossing your sky now

WASEDA-SAT3

Track WASEDA-SAT3 now!
10-day predictions
WASEDA-SAT3 is classified as:


NORAD ID: 41933
Int'l Code: 1998-067KV
Perigee: 361.4 km
Apogee: 367.6 km
Inclination: 51.6 °
Period: 91.7 minutes
Semi major axis: 6735 km
RCS: Unknown
Launch date: November 20, 1998
Source: Japan (JPN)
Launch site: TYURATAM MISSILE AND SPACE COMPLEX (TTMTR)
Uplink (MHz):
Downlink (MHz):
Beacon (MHz):
Mode:
Call sign:
Status:

aabbcc
Your satellite tracking list
Your tracking list is empty




NASA's NSSDC Master Catalog

Two Line Element Set (TLE):
1 41933U 98067KV  18017.87514614 +.00024303 +00000-0 +19759-3 0  9999
2 41933 051.6361 027.8771 0004665 007.0757 353.0305 15.70539757057159
Source of the keplerian elements: AFSPC